Terug naar catalogus

SPACEMOBILE-SSR01 DEB

ActiefVLEO
NORAD 62369·DEBRIS·🇺🇸 United States

Gelanceerd Sep 12, 2024 vanaf Cape Canaveral Space Force Station

Loading…

Volgende Passages (komende 24 uur)

TLE

VersSource: Space-Track

Epoch: Sep 14, 2026, 06:46 UTC

1 62369U 24163F   26257.28220605  .00007141  00000-0  20901-3 0  9997
2 62369  52.9927 220.2123 0009328  86.4165 273.7902 15.36339794100197

Volg SPACEMOBILE-SSR01 DEB in realtime met AllMySat

Download on the App Store